Погода в Рубежном

Россия / Чеченская Республика     43°43′48″N   45°10′12″E
темп.,
°C
ветер,
м/с
пор.,
м/с
влажн.,
%
обл.,
%
осадки,
мм/ч
давл.,
гПа
погр.,
м
13 августа, сб
сб1300:00+24в59583 0.1 1011393
03:00+22вюв36710 0.1 1011233
06:00+22юв12750 0.0 1011177
09:00+28в13470 0.0 1011731
12:00+35вюв89220 0.0 10081825
15:00+37в109160 0.0 10062488
18:00+32в1012241 0.0 10071138
21:00+28в815290 0.0 1007640
14 августа, вс
вс1400:00+25в612441 0.0 1007480
03:00+23в35580 0.0 1006111
06:00+23в25620 0.0 1006234
09:00+29вюв22390 0.0 1006749
12:00+37вюв45200 0.0 10031536
15:00+40в87130 0.0 10012464
18:00+34в910240 0.0 1003936
21:00+29в712300 0.0 1005509
15 августа, пн
пн1500:00+25всв47430 0.0 1005157
03:00+23в22650 0.0 100526
06:00+23юв13705 0.0 1006113
09:00+31в34374 0.0 1005796
12:00+40в79130 0.0 10032058
15:00+41в1110120 0.0 10022177
18:00+36в810180 0.0 10031000
21:00+28в59400 0.0 1004240
16 августа, вт
вт1600:00+25в33540 0.0 100537
03:00+23в22630 0.0 100522
06:00+23зюз22610 0.0 100680
09:00+31з44370 0.0 1006678
12:00+38зсз32240 0.0 10051416
15:00+42юз22170 0.0 10042255
18:00+40сз12190 0.0 100450
21:00+29в48360 0.0 1006137
17 августа, ср
ср1700:00+26в33480 0.0 100736
03:00+25з22500 0.0 100715
06:00+25з46460 0.0 1008151
09:00+34зсз55310 0.0 1007764
12:00+39с22210 0.0 10051656
15:00+42всв43170 0.0 10032561
18:00+40св45190 0.0 1002413
21:00+29в47330 0.0 1004110